When you browse on this site, cookies collect data to enhance your experience and personalize the content and advertising you see.
Visit our Privacy Policy to learn more. By continuing to use the site, you agree to this use of cookies and data.
  • In Hungary
  • List of Countries
  • For 7 days
  • Water Temperature
  • Satellite Maps
  • Weather Map
  • News
  • Weather Widgets
  • user-avatar
    Login

    Hourly Weather Kayanza

    Today, 10 December, Monday

    Time Temperature Precipitation Wind Pressure Humidity
    00:00 +13°C° 0.9 mm 0 mps 606 mmHg 94%
    01:00 +13°C° 0.9 mm 0 mps 606 mmHg 95%
    02:00 +13°C° 0 mm 0 mps 606 mmHg 95%
    03:00 +13°C° 0.5 mm 0 mps 606 mmHg 95%
    04:00 +12°C° 0.5 mm 0 mps 606 mmHg 95%
    05:00 +12°C° 0.5 mm 0 mps 606 mmHg 95%
    06:00 +13°C° 0.3 mm 0 mps 606 mmHg 92%
    07:00 +14°C° 0.3 mm 0 mps 607 mmHg 90%
    08:00 +15°C° 0 mm 0 mps 608 mmHg 85%
    09:00 +17°C° 0.2 mm 0 mps 609 mmHg 79%
    10:00 +20°C° 0.2 mm 1 mps 609 mmHg 73%
    11:00 +22°C° 0.2 mm 1 mps 609 mmHg 68%
    12:00 +22°C° 0.6 mm 1 mps 609 mmHg 68%
    13:00 +22°C° 0.6 mm 1 mps 608 mmHg 69%
    14:00 +22°C° 0.6 mm 1 mps 608 mmHg 70%
    15:00 +21°C° 1 mm 1 mps 607 mmHg 75%
    16:00 +20°C° 1 mm 1 mps 606 mmHg 79%
    17:00 +19°C° 1 mm 1 mps 606 mmHg 84%
    18:00 +16°C° 0.8 mm 0 mps 606 mmHg 86%
    19:00 +15°C° 0.8 mm 0 mps 606 mmHg 89%
    20:00 +14°C° 0.8 mm 0 mps 606 mmHg 91%
    21:00 +14°C° 0.7 mm 0 mps 606 mmHg 92%
    22:00 +14°C° 0.7 mm 0 mps 606 mmHg 93%
    23:00 +13°C° 0.7 mm 0 mps 606 mmHg 93%

    Tomorrow, 11 December, Tuesday

    Time Temperature Precipitation Wind Pressure Humidity
    00:00 +13°C° 0.5 mm 0 mps 606 mmHg 94%
    01:00 +13°C° 0.5 mm 0 mps 606 mmHg 94%
    02:00 +13°C° 0.5 mm 0 mps 605 mmHg 94%
    03:00 +13°C° 0.5 mm 0 mps 605 mmHg 94%
    04:00 +13°C° 0.5 mm 0 mps 605 mmHg 94%
    05:00 +13°C° 0.5 mm 0 mps 605 mmHg 94%
    06:00 +13°C° 0.5 mm 0 mps 606 mmHg 93%
    07:00 +14°C° 0.5 mm 0 mps 607 mmHg 91%
    08:00 +15°C° 0.5 mm 0 mps 607 mmHg 89%
    09:00 +16°C° 0.6 mm 0 mps 607 mmHg 86%
    10:00 +19°C° 0.6 mm 1 mps 608 mmHg 82%
    11:00 +20°C° 0.6 mm 1 mps 608 mmHg 79%
    12:00 +20°C° 0.6 mm 1 mps 608 mmHg 77%
    13:00 +21°C° 0.6 mm 1 mps 607 mmHg 75%
    14:00 +21°C° 0.6 mm 1 mps 607 mmHg 73%
    15:00 +20°C° 0.6 mm 1 mps 606 mmHg 77%
    16:00 +20°C° 0.6 mm 1 mps 606 mmHg 80%
    17:00 +19°C° 0.6 mm 1 mps 605 mmHg 84%
    18:00 +18°C° 0.9 mm 1 mps 606 mmHg 87%
    19:00 +15°C° 0.9 mm 0 mps 606 mmHg 89%
    20:00 +14°C° 0.9 mm 0 mps 606 mmHg 92%
    21:00 +14°C° 1 mm 0 mps 606 mmHg 92%
    22:00 +14°C° 1 mm 0 mps 607 mmHg 93%
    23:00 +14°C° 1 mm 0 mps 607 mmHg 94%

    Day after tomorrow, 12 December, Wednesday

    Time Temperature Precipitation Wind Pressure Humidity
    00:00 +13°C° 0.8 mm 0 mps 606 mmHg 94%
    01:00 +13°C° 0.8 mm 0 mps 606 mmHg 94%
    02:00 +13°C° 0.8 mm 0 mps 605 mmHg 94%
    03:00 +13°C° 0.5 mm 0 mps 605 mmHg 94%
    04:00 +13°C° 0.5 mm 0 mps 605 mmHg 94%
    05:00 +13°C° 0.5 mm 0 mps 605 mmHg 94%
    06:00 +14°C° 0.4 mm 0 mps 606 mmHg 93%
    07:00 +14°C° 0.4 mm 0 mps 607 mmHg 91%
    08:00 +15°C° 0.4 mm 0 mps 608 mmHg 90%
    09:00 +16°C° 0.7 mm 0 mps 608 mmHg 86%
    10:00 +17°C° 0.7 mm 0 mps 608 mmHg 83%
    11:00 +18°C° 0.7 mm 0 mps 609 mmHg 79%
    12:00 +19°C° 1.1 mm 0 mps 608 mmHg 78%
    13:00 +21°C° 1.1 mm 1 mps 608 mmHg 78%
    14:00 +21°C° 1.1 mm 1 mps 607 mmHg 77%
    15:00 +20°C° 1.2 mm 1 mps 607 mmHg 80%
    16:00 +19°C° 1.2 mm 1 mps 606 mmHg 83%
    17:00 +18°C° 1.2 mm 1 mps 605 mmHg 86%
    18:00 +16°C° 0.6 mm 0 mps 606 mmHg 88%
    19:00 +15°C° 0.6 mm 0 mps 606 mmHg 90%
    20:00 +14°C° 0.6 mm 0 mps 607 mmHg 91%
    21:00 +14°C° 1 mm 0 mps 607 mmHg 92%
    22:00 +15°C° 1 mm 1 mps 607 mmHg 93%
    23:00 +14°C° 1 mm 1 mps 607 mmHg 94%

    13 December, Thursday

    Time Temperature Precipitation Wind Pressure Humidity
    00:00 +14°C° 0.4 mm 1 mps 606 mmHg 94%
    01:00 +13°C° 0.4 mm 0 mps 606 mmHg 94%
    02:00 +12°C° 0.4 mm 0 mps 605 mmHg 94%
    03:00 +12°C° 0.1 mm 0 mps 605 mmHg 94%
    04:00 +12°C° 0.1 mm 0 mps 605 mmHg 94%
    05:00 +12°C° 0.1 mm 0 mps 605 mmHg 94%
    06:00 +13°C° 0.1 mm 0 mps 606 mmHg 91%
    07:00 +14°C° 0.1 mm 0 mps 607 mmHg 88%
    08:00 +15°C° 0.1 mm 0 mps 608 mmHg 85%
    09:00 +17°C° 0.1 mm 0 mps 608 mmHg 78%
    10:00 +19°C° 0.1 mm 0 mps 609 mmHg 71%
    11:00 +21°C° 0.1 mm 0 mps 609 mmHg 64%
    12:00 +23°C° 0.3 mm 1 mps 608 mmHg 64%
    13:00 +23°C° 0.3 mm 1 mps 608 mmHg 63%
    14:00 +23°C° 0.3 mm 1 mps 607 mmHg 62%
    15:00 +22°C° 0.8 mm 1 mps 606 mmHg 69%
    16:00 +20°C° 0.8 mm 1 mps 606 mmHg 76%
    17:00 +19°C° 0.8 mm 1 mps 605 mmHg 83%
    18:00 +18°C° 1.1 mm 1 mps 606 mmHg 85%
    19:00 +15°C° 1.1 mm 0 mps 606 mmHg 88%
    20:00 +14°C° 1.1 mm 0 mps 606 mmHg 91%
    21:00 +14°C° 0.9 mm 0 mps 606 mmHg 92%
    22:00 +14°C° 0.9 mm 0 mps 607 mmHg 92%
    23:00 +14°C° 0.9 mm 0 mps 607 mmHg 93%

    14 December, Friday

    Time Temperature Precipitation Wind Pressure Humidity
    00:00 +13°C° 0.3 mm 0 mps 606 mmHg 94%
    01:00 +13°C° 0.3 mm 0 mps 606 mmHg 94%
    02:00 +13°C° 0.3 mm 0 mps 605 mmHg 94%
    03:00 +13°C° 0.2 mm 0 mps 605 mmHg 94%
    04:00 +13°C° 0.2 mm 0 mps 605 mmHg 94%
    05:00 +13°C° 0.2 mm 0 mps 605 mmHg 94%
    06:00 +14°C° 0.1 mm 0 mps 606 mmHg 92%
    07:00 +15°C° 0.1 mm 0 mps 607 mmHg 89%
    08:00 +16°C° 0.1 mm 0 mps 608 mmHg 87%
    09:00 +17°C° 0.7 mm 0 mps 608 mmHg 84%
    10:00 +20°C° 0.7 mm 1 mps 608 mmHg 81%
    11:00 +20°C° 0.7 mm 1 mps 608 mmHg 77%
    12:00 +20°C° 1.2 mm 1 mps 607 mmHg 79%
    13:00 +20°C° 1.2 mm 1 mps 607 mmHg 81%
    14:00 +20°C° 1.2 mm 1 mps 606 mmHg 82%
    15:00 +19°C° 1 mm 1 mps 606 mmHg 84%
    16:00 +19°C° 1 mm 1 mps 606 mmHg 86%
    17:00 +17°C° 1 mm 0 mps 605 mmHg 87%
    18:00 +16°C° 0.5 mm 0 mps 606 mmHg 89%
    19:00 +15°C° 0.5 mm 0 mps 606 mmHg 90%
    20:00 +14°C° 0.5 mm 0 mps 606 mmHg 92%
    21:00 +14°C° 0.4 mm 0 mps 606 mmHg 92%
    22:00 +13°C° 0.4 mm 0 mps 606 mmHg 93%
    23:00 +13°C° 0.4 mm 0 mps 606 mmHg 93%

    15 December, Saturday

    Time Temperature Precipitation Wind Pressure Humidity
    00:00 +13°C° 0.1 mm 0 mps 606 mmHg 93%
    01:00 +13°C° 0.1 mm 0 mps 605 mmHg 94%
    02:00 +12°C° 0.1 mm 0 mps 605 mmHg 94%
    03:00 +12°C° 0 mm 0 mps 605 mmHg 93%
    04:00 +12°C° 0 mm 0 mps 605 mmHg 93%
    05:00 +11°C° 0 mm 0 mps 605 mmHg 93%
    06:00 +13°C° 0 mm 0 mps 606 mmHg 88%
    07:00 +15°C° 0 mm 0 mps 607 mmHg 84%
    08:00 +17°C° 0 mm 0 mps 608 mmHg 79%
    09:00 +19°C° 0 mm 0 mps 609 mmHg 70%
    10:00 +21°C° 0 mm 0 mps 609 mmHg 61%
    11:00 +26°C° 0 mm 1 mps 609 mmHg 52%
    12:00 +25°C° 0.4 mm 1 mps 609 mmHg 55%
    13:00 +25°C° 0.4 mm 1 mps 608 mmHg 58%
    14:00 +25°C° 0.4 mm 1 mps 607 mmHg 61%
    15:00 +23°C° 1 mm 1 mps 606 mmHg 67%
    16:00 +22°C° 1 mm 1 mps 606 mmHg 72%
    17:00 +21°C° 1 mm 1 mps 606 mmHg 78%
    18:00 +20°C° 0.9 mm 1 mps 606 mmHg 81%
    19:00 +16°C° 0.9 mm 0 mps 606 mmHg 85%
    20:00 +15°C° 0.9 mm 0 mps 606 mmHg 88%
    21:00 +15°C° 0.6 mm 0 mps 606 mmHg 89%
    22:00 +14°C° 0.6 mm 0 mps 606 mmHg 90%
    23:00 +14°C° 0.6 mm 0 mps 606 mmHg 91%
    Show more